SCP
0 0 0 0 0 0 0 0 0 0 0 0 0 0 0 0 0 0 0 0 0 0 0 0 0 0 0 0 0 0 0 0 0 0 0 0 0 0
0 0 0 0 0 0 0 0 0 0 0 0 0 0 0 0 0 0 0 0 0 0 0 0 0 0 0 0 0 0 0 0 0 0 0 0 0 0
0 0 0 0 0 0 0 0 0 0 0 0 0 0 0 0 0 0 0 0 0 0 0 0 0 0 0 0 0 0 0 0 0 0 0 0 0 0
0 0 0 0 0 0 0 0 0 0 0 0 0 0 0 0 0 0 0 0 0 0 0 0 0 0 0 0 0 0 0 0 0 0 0 0 0 0
0 0 0 0 0 0 0 0 0 0 0 0 0 0 0 0 0 0 0 0 0 0 0 0 0 0 0 0 0 0 0 0 0 0 0 0 0 0
0 0 0 0 0 0 0 0 0 0 0 0 0 0 0 0 0 0 0 0 0 0 0 0 0 0 0 0 0 0 0 0 0 0 0 0 0 0
0 0 0 0 0 0 0 0 0 0 0 0 0 0 0 0 0 0 0 0 0 0 0 0 0 0 0 0 0 0 0 0 0 0 0 0 0 0
0 0 0 0 0 0 0 0 0 0 0 0 0 0 0 0 0 0 0 0 0 0 0 0 0 0 0 0 0 0 0 0 0 0 0 0 0 0
0 0 0 0 0 0 0 0 0 0 0 0 0 0 0 0 0 0 0 0 0 0 0 0 0 0 0 0 0 0 0 0 0 0 0 0 0 0
0 0 0 0 0 0 0 0 0 0 0 0 0 0 0 0 0 0 0 0 0 0 0 0 0 0 0 0 -0 -0 0 0 0 0 0 0 0 0
0 0 0 0 0 0 0 0 0 0 0 0 0 0 0 0 0 0 0 0 0 0 0 0 0 0 0 0 0 0 0 0 0 0 0 0 0 0
0 0 0 0 0 0 0 0 0 0 0 0 0 0 0 0 0 0 -0 0 0 -0 -0 -0 -0 0 0 0 0 0 0 -0 -0 0 0 0 0 0
0 0 0 0 0 0 0 0 0 0 0 0 0 0 0 0 0 0 0 -0 -0 -0 -0 -0 -0 -0 0 0 0 0 0 0 0 0 0 0 0 0
0 0 0 0 0 0 0 0 0 0 0 0 0 0 0 0 0 0 0 0 0 0 -0 0 0 0 0 0 0 0 0 0 0 0 0 0 0 0
0 0 0 0 0 0 0 0 0 0 0 0 0 0 -0 -0 -0 -0 0 0 0 0 0 0 0 0 0 0 0 0 0 0 0 0 0 0 0 0
0 0 0 0 0 0 0 0 0 0 0 0 0 0 0 0 0 0 0 0 0 0 0 0 0 0 0 0 0 0 0 0 0 0 0 0 0 0
0 0 0 0 0 0 0 0 0 0 0 0 0 0 0 0 0 0 0 0 0 0 0 0 0 0 0 0 0 0 0 0 0 0 0 0 0 0
0 0 0 0 0 0 0 0 0 0 0 0 0 0 0 0 0 0 0 0 0 0 0 0 0 0 0 0 0 0 0 0 0 0 0 0 0 0
0 0 0 0 0 0 0 0 0 0 0 0 0 0 0 0 0 0 0 0 0 0 0 0 0 0 0 0 0 0 0 0 0 0 0 0 0 0
0 0 0 0 0 0 0 0 0 0 0 0 0 0 0 0 0 0 0 0 0 0 0 0 0 0 0 0 0 0 0 0 0 0 0 0 0 0
0 0 0 0 0 0 0 0 0 0 0 0 0 0 0 0 0 0 0 0 0 0 0 0 0 0 0 0 0 0 0 0 0 0 0 0 0 0
0 0 0 0 0 0 0 0 0 0 0 0 0 0 0 0 0 0 0 0 0 0 0 0 0 0 0 0 0 0 0 0 0 0 0 0 0 0
0 0 0 0 0 0 0 0 0 0 0 0 0 0 0 0 0 0 0 0 0 0 0 0 0 0 0 0 0 0 0 0 0 0 0 0 0 0
Wind_Speed_500mb
41 44 48 50 51 53 54 51 59 83 131 91 84 84 79 72 68 72 75 79 75 72 80 71 78 81 81 83 87 90 91 91 89 88 90 92 92 92
47 52 53 56 59 59 60 62 61 64 90 112 111 99 95 84 82 78 76 79 77 73 73 75 78 77 82 85 85 88 90 96 95 89 87 86 88 89
53 60 63 67 70 71 72 71 71 68 75 125 107 109 106 97 89 82 80 75 75 76 75 79 75 79 83 83 84 85 85 86 83 78 67 59 51 29
65 68 71 73 74 75 76 78 80 79 74 95 116 110 101 90 86 86 83 79 77 74 75 71 71 74 75 74 74 70 57 39 18 33 36 26 34 46
69 73 77 79 82 80 79 82 82 83 80 78 105 100 99 93 93 87 86 85 77 72 72 71 71 72 72 68 59 32 13 31 30 35 38 54 56 51
73 76 79 81 83 85 84 83 81 80 80 78 85 91 88 89 80 80 89 84 82 73 70 69 65 62 55 42 11 29 19 19 36 48 46 37 32 33
79 81 83 84 82 81 82 79 74 76 74 79 83 80 87 85 84 89 83 82 76 71 59 42 35 26 18 5 24 17 30 36 33 27 25 23 19 13
86 87 89 89 87 84 81 76 68 70 75 76 83 82 93 80 82 81 77 72 58 43 22 13 9 12 13 22 33 31 26 22 22 20 18 16 14 13
85 88 91 91 88 86 87 81 79 68 61 68 72 74 79 75 73 76 62 46 44 17 3 17 22 38 40 36 28 27 33 20 18 17 17 16 17 17
83 86 88 89 85 85 86 90 83 74 59 59 59 65 67 68 59 50 37 29 9 11 12 38 39 44 38 40 33 32 18 15 17 18 17 17 18 18
82 83 83 83 83 72 76 79 74 71 64 55 44 44 47 43 33 19 15 9 23 24 24 38 38 37 39 46 44 28 17 18 16 15 16 16 16 15
84 80 77 73 69 66 61 59 69 63 48 44 38 30 26 21 14 11 8 9 20 27 19 35 41 35 29 33 25 14 14 13 13 14 14 14 15 16
81 76 70 68 58 55 46 48 43 42 33 29 27 17 14 16 17 18 15 16 5 14 23 30 28 15 15 31 17 11 7 8 9 11 13 16 18 18
69 67 64 65 56 41 36 35 31 23 21 24 15 8 12 18 21 23 24 21 19 21 18 14 17 8 8 24 15 10 3 4 7 10 14 18 18 18
61 60 55 56 47 39 32 35 24 20 19 15 3 6 10 14 19 17 17 15 12 13 15 14 9 10 11 9 12 13 7 4 7 14 16 16 17 17
68 59 53 55 45 36 33 31 22 18 12 9 8 5 6 7 8 10 10 10 6 8 9 10 8 8 9 13 11 12 6 3 8 13 16 18 19 17
66 58 54 54 45 35 34 27 21 18 15 12 9 7 6 7 8 7 7 6 2 3 6 8 9 9 11 14 9 8 5 5 8 10 12 13 14 15
56 57 54 56 48 35 35 29 25 24 20 17 13 10 13 13 10 9 8 7 6 1 2 4 5 6 8 10 8 6 4 4 6 8 10 11 13 17
46 51 50 54 47 39 39 33 33 30 27 23 17 16 16 14 11 11 10 9 7 3 3 3 3 3 4 6 6 4 1 3 8 13 16 18 20 19
36 41 45 50 45 42 43 39 34 34 30 27 21 17 15 14 16 13 12 11 9 7 7 6 6 6 5 5 5 2 3 8 11 14 16 18 19 18
42 40 33 38 40 43 45 45 39 36 32 25 21 19 18 19 16 15 13 11 9 8 8 8 7 6 4 2 1 3 7 10 14 17 17 19 18 16
50 46 37 42 47 45 47 45 39 35 29 24 22 21 22 20 18 16 13 11 10 11 11 11 9 8 6 5 5 7 9 13 17 19 21 22 20 16
56 47 39 36 39 49 46 43 39 32 25 25 23 23 22 20 20 17 15 15 13 13 13 12 10 10 9 8 7 9 11 13 13 16 20 20 21 23
Wind_Direction_500mb
319 318 317 317 313 312 308 301 297 303 304 306 305 307 305 305 300 300 297 297 297 294 292 290 292 287 286 288 285 288 288 287 284 282 281 280 279 279
321 320 321 318 316 315 312 307 301 296 292 303 304 304 304 303 302 300 298 298 299 296 294 294 293 290 289 285 284 285 283 284 287 287 285 282 279 278
325 323 323 321 319 318 315 311 307 302 290 300 301 305 305 305 306 301 303 303 298 298 297 294 292 294 288 285 285 285 287 287 286 290 287 279 258 230
326 323 322 319 317 316 313 310 307 305 298 296 303 305 305 307 305 303 305 300 299 301 300 299 295 291 293 292 292 292 296 309 305 161 179 194 137 130
325 324 323 321 320 319 317 313 311 308 304 294 300 303 303 304 307 304 303 305 304 306 303 298 294 293 292 291 291 294 246 239 243 179 144 130 116 106
324 324 323 323 322 322 320 317 314 311 308 300 297 300 299 304 303 303 308 312 310 310 305 299 294 294 295 295 254 195 262 247 159 137 124 117 116 118
326 326 326 324 323 321 319 318 314 310 306 304 300 300 300 303 301 305 303 307 305 306 303 294 300 309 334 33 177 211 154 144 129 117 103 103 102 96
327 329 329 329 327 325 322 320 317 313 307 304 300 298 297 299 302 303 303 301 299 302 293 330 12 105 111 123 126 123 113 98 95 82 74 71 71 74
325 326 327 329 328 325 323 321 319 315 305 305 299 297 299 302 304 303 304 302 292 279 221 99 113 112 110 110 115 97 116 98 75 66 65 68 71 71
322 323 324 325 325 323 322 320 321 321 327 320 315 309 303 301 300 301 302 291 233 170 156 115 121 109 109 95 114 126 113 79 75 76 69 62 60 58
321 319 319 322 325 324 321 321 325 326 323 319 311 303 307 315 316 318 307 217 137 130 133 125 123 126 127 121 123 120 94 93 84 70 64 57 48 32
319 317 317 323 324 325 324 326 318 320 326 323 326 327 335 346 8 45 51 149 133 126 139 138 135 128 112 124 127 105 105 88 67 62 47 33 18 9
317 316 317 323 325 325 323 319 323 324 319 327 335 349 18 33 48 63 74 145 97 122 151 160 163 170 165 163 151 132 97 67 51 36 24 8 1 358
310 310 314 323 324 320 314 320 320 323 326 332 339 36 47 55 60 64 68 81 102 99 123 165 183 171 183 170 171 176 140 56 47 23 11 0 360 1
305 307 312 320 318 312 316 321 320 313 311 321 329 45 50 55 52 51 62 69 76 91 104 114 136 138 144 158 160 155 137 77 24 358 1 1 2 1
311 311 307 308 306 299 309 315 306 308 296 281 295 342 5 26 21 39 42 54 46 85 96 105 108 103 128 129 128 137 125 44 359 359 358 358 358 355
309 303 300 300 301 283 291 294 282 276 274 275 287 303 303 314 326 331 338 348 339 59 91 99 104 112 125 119 128 119 89 27 6 357 356 353 357 354
307 301 293 296 292 276 275 273 260 258 266 278 285 281 280 287 294 303 311 309 309 307 122 117 114 119 117 106 119 115 79 21 1 1 2 360 356 354
306 300 289 294 286 272 268 269 255 256 267 273 267 268 268 271 286 292 293 293 290 263 218 216 204 203 217 185 151 126 68 6 358 357 359 358 360 356
316 308 293 297 283 273 267 266 261 253 256 262 263 262 258 271 276 277 276 276 275 253 237 224 222 222 213 192 160 121 12 356 351 350 353 350 348 345
317 309 309 298 286 274 268 264 256 251 255 256 258 258 261 264 267 266 264 259 255 246 236 234 230 217 235 257 357 1 342 335 338 340 346 344 345 337
309 303 301 293 288 277 271 259 249 252 247 247 251 259 261 266 269 264 261 253 240 238 238 239 239 247 265 294 314 320 329 336 336 335 334 333 334 321
307 300 292 289 282 275 269 255 249 244 239 245 254 257 260 264 263 254 254 245 236 237 238 241 248 259 266 278 298 310 320 326 326 322 321 319 317 315
Wind_Speed_850mb
41 44 48 50 51 53 54 51 59 83 131 91 84 84 79 72 68 72 75 79 75 72 80 71 78 81 81 83 87 90 91 91 89 88 90 92 92 92
47 52 53 56 59 59 60 62 61 64 90 112 111 99 95 84 82 78 76 79 77 73 73 75 78 77 82 85 85 88 90 96 95 89 87 86 88 89
53 60 63 67 70 71 72 71 71 68 75 125 107 109 106 97 89 82 80 75 75 76 75 79 75 79 83 83 84 85 85 86 83 78 67 59 51 29
65 68 71 73 74 75 76 78 80 79 74 95 116 110 101 90 86 86 83 79 77 74 75 71 71 74 75 74 74 70 57 39 18 33 36 26 34 46
69 73 77 79 82 80 79 82 82 83 80 78 105 100 99 93 93 87 86 85 77 72 72 71 71 72 72 68 59 32 13 31 30 35 38 54 56 51
73 76 79 81 83 85 84 83 81 80 80 78 85 91 88 89 80 80 89 84 82 73 70 69 65 62 55 42 11 29 19 19 36 48 46 37 32 33
79 81 83 84 82 81 82 79 74 76 74 79 83 80 87 85 84 89 83 82 76 71 59 42 35 26 18 5 24 17 30 36 33 27 25 23 19 13
86 87 89 89 87 84 81 76 68 70 75 76 83 82 93 80 82 81 77 72 58 43 22 13 9 12 13 22 33 31 26 22 22 20 18 16 14 13
85 88 91 91 88 86 87 81 79 68 61 68 72 74 79 75 73 76 62 46 44 17 3 17 22 38 40 36 28 27 33 20 18 17 17 16 17 17
83 86 88 89 85 85 86 90 83 74 59 59 59 65 67 68 59 50 37 29 9 11 12 38 39 44 38 40 33 32 18 15 17 18 17 17 18 18
82 83 83 83 83 72 76 79 74 71 64 55 44 44 47 43 33 19 15 9 23 24 24 38 38 37 39 46 44 28 17 18 16 15 16 16 16 15
84 80 77 73 69 66 61 59 69 63 48 44 38 30 26 21 14 11 8 9 20 27 19 35 41 35 29 33 25 14 14 13 13 14 14 14 15 16
81 76 70 68 58 55 46 48 43 42 33 29 27 17 14 16 17 18 15 16 5 14 23 30 28 15 15 31 17 11 7 8 9 11 13 16 18 18
69 67 64 65 56 41 36 35 31 23 21 24 15 8 12 18 21 23 24 21 19 21 18 14 17 8 8 24 15 10 3 4 7 10 14 18 18 18
61 60 55 56 47 39 32 35 24 20 19 15 3 6 10 14 19 17 17 15 12 13 15 14 9 10 11 9 12 13 7 4 7 14 16 16 17 17
68 59 53 55 45 36 33 31 22 18 12 9 8 5 6 7 8 10 10 10 6 8 9 10 8 8 9 13 11 12 6 3 8 13 16 18 19 17
66 58 54 54 45 35 34 27 21 18 15 12 9 7 6 7 8 7 7 6 2 3 6 8 9 9 11 14 9 8 5 5 8 10 12 13 14 15
56 57 54 56 48 35 35 29 25 24 20 17 13 10 13 13 10 9 8 7 6 1 2 4 5 6 8 10 8 6 4 4 6 8 10 11 13 17
46 51 50 54 47 39 39 33 33 30 27 23 17 16 16 14 11 11 10 9 7 3 3 3 3 3 4 6 6 4 1 3 8 13 16 18 20 19
36 41 45 50 45 42 43 39 34 34 30 27 21 17 15 14 16 13 12 11 9 7 7 6 6 6 5 5 5 2 3 8 11 14 16 18 19 18
42 40 33 38 40 43 45 45 39 36 32 25 21 19 18 19 16 15 13 11 9 8 8 8 7 6 4 2 1 3 7 10 14 17 17 19 18 16
50 46 37 42 47 45 47 45 39 35 29 24 22 21 22 20 18 16 13 11 10 11 11 11 9 8 6 5 5 7 9 13 17 19 21 22 20 16
56 47 39 36 39 49 46 43 39 32 25 25 23 23 22 20 20 17 15 15 13 13 13 12 10 10 9 8 7 9 11 13 13 16 20 20 21 23
Wind_Direction_850mb
319 318 317 317 313 312 308 301 297 303 304 306 305 307 305 305 300 300 297 297 297 294 292 290 292 287 286 288 285 288 288 287 284 282 281 280 279 279
321 320 321 318 316 315 312 307 301 296 292 303 304 304 304 303 302 300 298 298 299 296 294 294 293 290 289 285 284 285 283 284 287 287 285 282 279 278
325 323 323 321 319 318 315 311 307 302 290 300 301 305 305 305 306 301 303 303 298 298 297 294 292 294 288 285 285 285 287 287 286 290 287 279 258 230
326 323 322 319 317 316 313 310 307 305 298 296 303 305 305 307 305 303 305 300 299 301 300 299 295 291 293 292 292 292 296 309 305 161 179 194 137 130
325 324 323 321 320 319 317 313 311 308 304 294 300 303 303 304 307 304 303 305 304 306 303 298 294 293 292 291 291 294 246 239 243 179 144 130 116 106
324 324 323 323 322 322 320 317 314 311 308 300 297 300 299 304 303 303 308 312 310 310 305 299 294 294 295 295 254 195 262 247 159 137 124 117 116 118
326 326 326 324 323 321 319 318 314 310 306 304 300 300 300 303 301 305 303 307 305 306 303 294 300 309 334 33 177 211 154 144 129 117 103 103 102 96
327 329 329 329 327 325 322 320 317 313 307 304 300 298 297 299 302 303 303 301 299 302 293 330 12 105 111 123 126 123 113 98 95 82 74 71 71 74
325 326 327 329 328 325 323 321 319 315 305 305 299 297 299 302 304 303 304 302 292 279 221 99 113 112 110 110 115 97 116 98 75 66 65 68 71 71
322 323 324 325 325 323 322 320 321 321 327 320 315 309 303 301 300 301 302 291 233 170 156 115 121 109 109 95 114 126 113 79 75 76 69 62 60 58
321 319 319 322 325 324 321 321 325 326 323 319 311 303 307 315 316 318 307 217 137 130 133 125 123 126 127 121 123 120 94 93 84 70 64 57 48 32
319 317 317 323 324 325 324 326 318 320 326 323 326 327 335 346 8 45 51 149 133 126 139 138 135 128 112 124 127 105 105 88 67 62 47 33 18 9
317 316 317 323 325 325 323 319 323 324 319 327 335 349 18 33 48 63 74 145 97 122 151 160 163 170 165 163 151 132 97 67 51 36 24 8 1 358
310 310 314 323 324 320 314 320 320 323 326 332 339 36 47 55 60 64 68 81 102 99 123 165 183 171 183 170 171 176 140 56 47 23 11 0 360 1
305 307 312 320 318 312 316 321 320 313 311 321 329 45 50 55 52 51 62 69 76 91 104 114 136 138 144 158 160 155 137 77 24 358 1 1 2 1
311 311 307 308 306 299 309 315 306 308 296 281 295 342 5 26 21 39 42 54 46 85 96 105 108 103 128 129 128 137 125 44 359 359 358 358 358 355
309 303 300 300 301 283 291 294 282 276 274 275 287 303 303 314 326 331 338 348 339 59 91 99 104 112 125 119 128 119 89 27 6 357 356 353 357 354
307 301 293 296 292 276 275 273 260 258 266 278 285 281 280 287 294 303 311 309 309 307 122 117 114 119 117 106 119 115 79 21 1 1 2 360 356 354
306 300 289 294 286 272 268 269 255 256 267 273 267 268 268 271 286 292 293 293 290 263 218 216 204 203 217 185 151 126 68 6 358 357 359 358 360 356
316 308 293 297 283 273 267 266 261 253 256 262 263 262 258 271 276 277 276 276 275 253 237 224 222 222 213 192 160 121 12 356 351 350 353 350 348 345
317 309 309 298 286 274 268 264 256 251 255 256 258 258 261 264 267 266 264 259 255 246 236 234 230 217 235 257 357 1 342 335 338 340 346 344 345 337
309 303 301 293 288 277 271 259 249 252 247 247 251 259 261 266 269 264 261 253 240 238 238 239 239 247 265 294 314 320 329 336 336 335 334 333 334 321
307 300 292 289 282 275 269 255 249 244 239 245 254 257 260 264 263 254 254 245 236 237 238 241 248 259 266 278 298 310 320 326 326 322 321 319 317 315